Regional Weather Roundup
Issued by NWS

Home | Current Version | Previous Version | Text Only | Print | Product List | Glossary Off
Versions: 1 2 3 4 5 6 7 8 9 10 11 12 13 14 15 16 17 18 19 20 21 22 23 24 25 26 27 28 29 30 31 32 33 34 35 36 37 38 39 40 41 42 43 44 45 46 47 48 49 50

000
ASUS45 KBOI 041310
RWRID
WEATHER ROUNDUP FOR IDAHO
NATIONAL WEATHER SERVICE BOISE ID
700 AM MDT MON MAY 04 2015

NOTE: "FAIR" INDICATES FEW OR NO CLOUDS BELOW 12000 FEET
WITH NO SIGNIFICANT WEATHER AND/OR OBSTRUCTIONS TO VISIBILITY

IDZ012-014-041400-
SOUTHWEST IDAHO


CITY           SKY/WX    TMP DP  RH WIND       PRES   REMARKS
BOISE          PTCLDY    51  32  48 CALM      29.86R
CALDWELL       PTCLDY    43  30  61 CALM      29.88R
MOUNTAIN HOME  CLEAR     44  33  65 E6        29.88R
$$

IDZ016-017-041400-
SOUTHCENTRAL IDAHO


CITY           SKY/WX    TMP DP  RH WIND       PRES   REMARKS
BURLEY         CLEAR     45  39  79 N5        29.92R
JEROME         CLEAR     52  38  58 NE15      29.92S
TWIN FALLS     CLEAR     50  38  63 S5        29.92R
$$

IDZ019>023-041400-
SOUTHEAST IDAHO


CITY           SKY/WX    TMP DP  RH WIND       PRES   REMARKS
IDAHO FALLS    PTCLDY    42  39  89 N5        29.98R
POCATELLO      PTCLDY    42  36  79 CALM      29.97R
REXBURG        CLEAR     38  34  85 NE8       29.99S WCI  32
$$

IDZ006-010-011-018-031-032-041400-
CENTRAL IDAHO MOUNTAINS


CITY           SKY/WX    TMP DP  RH WIND       PRES   REMARKS
MCCALL         MOCLDY    34  27  75 NE3       29.95R
HAILEY         PTCLDY    45  34  65 W14       30.00S
STANLEY          N/A     25  21  85 CALM      30.06R
SALMON           N/A     37  30  75 SE3       29.97R
CHALLIS        CLEAR     41  30  65 CALM      30.00R
$$

IDZ002-004-006-007-026-041400-
NORTHERN IDAHO


CITY           SKY/WX    TMP DP  RH WIND       PRES   REMARKS
LEWISTON       CLEAR     44  33  65 E3        29.89R
LOWELL           N/A     39  35  86 CALM      29.98R
COEUR D`ALENE  CLEAR     37  30  75 E6        29.92R WCI  33
MULLAN PASS    CLEAR     44  19  36 S5        29.95R
$$


USA.gov is the U.S. government's official web portal to all federal, state and local government web resources and services.